Lid_Strength_Index
5 5 4 5 4 4 3 3 2 2 2 2 2 1 1 1 1 1 1 1 2 1 1 1 0 0 0 0 0 1 1 1 1
6 5 5 5 4 3 3 3 2 2 2 2 2 2 1 1 1 1 1 1 1 1 1 0 0 1 0 0 0 0 0 1 1
7 5 5 4 4 4 3 2 2 2 2 2 2 1 1 1 1 1 1 1 1 1 0 0 2 2 2 1 1 0 1 1 1
6 6 5 4 4 3 3 2 2 2 2 2 2 1 1 1 1 1 1 1 1 2 1 0 3 0 1 1 1 0 1 1 1
6 5 5 4 4 3 3 3 3 2 2 2 2 2 2 1 1 1 1 1 1 2 4 3 1 0 3 2 1 1 1 1 1
6 5 5 4 4 4 4 3 3 2 3 2 1 2 3 1 1 1 1 1 1 1 2 3 1 1 1 1 1 1 1 1 1
6 6 5 5 5 4 4 3 3 3 3 2 2 2 2 2 2 1 1 1 1 1 1 1 1 1 1 1 1 1 1 1 1
6 6 5 5 5 4 4 4 3 3 2 3 2 2 2 2 2 2 1 1 1 1 1 1 1 1 1 1 1 0 1 1 1
6 6 5 5 4 4 4 4 3 3 2 2 2 2 2 1 3 3 3 1 1 1 1 1 1 1 1 1 1 2 2 1 1
6 6 5 5 4 4 4 4 3 3 3 2 2 2 2 2 2 2 3 3 3 1 1 1 1 1 1 1 1 3 3 3 2
6 5 5 4 4 4 3 3 3 2 2 2 2 2 2 2 3 2 1 1 2 2 1 1 1 1 1 1 1 4 4 3 2
5 4 4 4 3 3 3 3 2 2 3 3 3 3 2 2 2 2 2 2 2 2 2 2 2 1 1 1 1 5 5 5 3
4 4 4 4 3 3 3 3 2 3 3 3 3 3 2 2 2 2 2 2 2 2 1 2 2 2 1 3 2 5 7 6 2
4 4 4 3 3 3 3 3 2 3 3 3 3 2 2 2 2 2 1 2 2 2 2 2 2 2 2 2 2 2 8 7 2
4 4 3 3 4 4 3 3 3 4 3 2 2 2 2 2 2 2 2 2 2 2 2 3 3 3 2 2 2 6 7 9 7
4 4 4 3 3 4 3 3 2 3 3 2 2 3 2 2 2 2 3 4 4 3 2 3 3 3 3 3 4 5 9 9 8
4 4 4 3 4 4 4 3 2 2 2 2 3 3 3 3 3 3 4 5 6 4 4 3 3 3 3 3 4 5 6 6 6
4 4 4 3 4 4 4 3 3 2 2 2 3 3 3 3 3 3 8 11 11 10 8 9 5 3 2 3 4 5 7 8 6
4 4 4 4 4 4 3 3 3 2 2 2 3 4 3 2 2 3 4 7 10 12 13 13 13 13 9 8 10 13 14 14 12
4 4 4 4 4 3 3 3 3 2 2 2 3 3 3 3 4 3 3 5 7 7 9 11 13 14 12 11 12 13 14 14 13